Location: Rounton
(54.4000°N, 1.3500°W)
Time: 04:33:24
(UTC+00:00)

A-11 Canister half - Pass Details

Date: 05 December 2021
Orbit: 1524 x 1684 km, 47.3° (Epoch: 17 January)

Event Time Altitude Azimuth Distance (km) Brightness Sun altitude
Exits shadow 03:01:35 46° 128° (SE) 2,119 9.7 -42.9°
Drops below altitude 10° 03:08:56 10° 93° (E) 3,881 11.6 -41.9°
Sets 03:12:07 0° 89° (E) 4,849 12.4 -41.5°
